User: anonymous   Login
Location: Mercogliano
(40.9167°N, 14.7333°E)
Time: 17:27:14
(UTC+00:00)
Language:

DMSP B5D2-2 - Orbit

View from above orbital plane
View from above orbital plane
View from above satellite
View from above satellite

Ground track
Ground track

The orbit data is extracted from the following two-line orbital elements,

1 14506U 83113A   20333.60229830 +.00000065 +00000-0 +42481-4 0  9997
2 14506 098.3126 178.3435 0012372 097.7773 326.4911 14.28121175926109
Epoch (UTC): 28 November 2020 14:27:18
Eccentricity: 0.0012372
inclination: 98.3126°
perigee height: 789 km
apogee height: 807 km
right ascension of ascending node: 178.3435°
argument of perigee: 97.7773°
revolutions per day: 14.28121175
mean anomaly at epoch: 326.4911°
orbit number at epoch: 92610

The dashed part of the orbit path shows where the satellite is in the earth's shadow,  

DLR